Theta_e
307 307 308 305 302 307 300 303 299 302 306 310 314 314 317 328 327 329 333 342 342 344 346 348 348 349 349 351 354 356 355 356
305 308 307 305 307 300 302 294 294 300 304 304 310 313 315 318 327 331 333 337 343 344 346 349 350 352 353 354 354 357 355 358
302 301 301 302 302 303 304 302 296 295 301 314 315 315 315 316 321 331 331 338 341 344 347 349 351 351 353 354 355 357 359 357
296 303 306 305 303 303 300 299 302 302 302 316 318 317 316 317 319 327 331 336 335 336 346 348 349 351 352 353 357 359 360 359
293 297 302 299 301 303 303 303 301 298 301 316 318 318 318 317 320 325 334 332 328 328 332 346 348 350 352 353 353 359 361 360
290 295 298 297 298 301 300 298 299 302 305 310 314 316 320 321 322 323 330 331 334 334 340 345 349 350 352 352 354 355 359 359
296 297 298 297 297 298 298 301 298 301 305 310 311 314 320 322 324 327 329 330 332 335 342 345 350 352 353 354 353 355 356 358
292 296 296 295 297 297 298 300 302 303 303 312 313 316 318 321 322 329 331 333 335 339 339 345 348 352 353 354 354 356 355 356
288 294 294 290 296 297 298 300 300 297 304 309 308 313 315 319 316 322 329 332 335 336 339 344 349 353 355 356 357 356 356 357
289 291 282 295 301 301 298 299 300 301 302 304 306 310 314 319 316 320 328 331 333 335 338 340 341 348 358 358 357 359 357 358
285 286 291 294 298 298 297 297 302 301 304 307 308 307 310 315 320 321 326 331 334 335 337 345 346 345 350 358 357 356 359 358
289 283 282 293 300 303 302 292 303 307 307 309 312 305 306 320 326 329 332 334 336 338 339 341 347 347 345 353 359 356 356 359
288 286 289 298 299 302 289 293 306 308 308 309 309 313 321 323 325 327 328 331 336 341 343 348 356 355 351 348 355 360 359 363
290 287 284 302 300 294 301 305 305 305 307 306 308 314 318 321 322 325 326 327 333 340 343 345 344 344 355 350 359 365 364 360
291 292 301 302 300 303 303 302 303 304 305 307 306 311 315 317 320 321 324 326 326 329 335 335 337 343 347 358 363 365 366 362
290 295 296 298 301 302 302 302 304 305 305 305 305 310 312 314 316 319 320 322 324 326 327 327 330 332 337 339 343 364 365 361
289 294 293 296 296 297 297 300 302 305 304 304 308 309 311 313 315 317 318 320 322 321 321 321 324 327 331 334 339 367 364 362
286 292 291 291 295 298 299 302 307 305 303 308 308 308 311 313 315 316 317 319 319 320 319 320 321 323 328 331 334 342 363 362
293 296 297 296 297 298 297 299 304 306 307 308 310 312 312 314 315 315 315 316 318 316 317 318 318 319 322 326 329 331 336 339
Wind_Speed
8 19 17 22 20 21 25 22 19 16 18 26 20 23 20 25 24 11 31 26 27 27 25 24 23 24 23 23 22 22 21 17
18 12 13 18 19 21 16 22 23 19 23 14 21 19 20 19 25 27 19 28 27 23 24 23 24 22 22 21 23 22 22 17
20 17 17 16 17 22 15 16 18 17 16 17 21 23 19 21 18 25 24 18 22 22 21 21 22 22 22 21 23 22 21 19
19 23 15 15 18 22 15 18 17 19 17 12 17 23 18 15 17 16 27 25 7 7 22 21 21 22 23 23 21 22 21 20
17 18 22 15 23 24 22 22 19 17 18 17 13 6 17 16 15 13 12 19 11 9 23 24 24 21 22 22 23 21 20 20
16 15 15 15 20 20 24 17 18 19 19 19 13 21 11 8 7 11 9 16 25 28 36 31 23 22 20 22 21 21 22 21
22 27 20 21 19 15 22 21 21 18 22 14 20 19 20 20 5 9 7 9 10 8 17 17 15 20 20 19 20 21 20 22
20 22 21 24 22 20 22 29 23 23 20 16 18 20 18 17 25 12 15 16 16 13 10 21 28 20 20 20 20 18 19 21
17 18 21 22 24 19 18 18 13 18 19 16 8 14 14 15 16 18 12 14 15 14 12 11 6 7 17 18 17 18 17 18
8 11 14 16 18 20 21 20 19 21 20 20 16 17 13 10 16 17 9 10 11 13 14 14 13 14 18 18 17 16 17 17
4 10 17 18 14 8 13 18 15 14 15 19 22 16 19 12 19 19 13 3 9 11 15 13 14 15 10 15 19 18 16 18
9 8 10 15 11 11 11 10 8 12 16 18 20 15 12 2 14 18 14 13 13 13 14 14 13 15 14 11 16 19 20 17
11 12 12 12 1 9 10 6 10 11 13 19 16 17 12 12 9 7 12 12 12 10 10 11 11 19 17 12 15 17 17 15
10 13 16 14 5 11 11 15 15 14 14 16 22 24 17 8 8 8 10 13 15 11 12 13 15 20 15 14 9 10 15 17
6 5 14 15 17 18 15 17 20 20 15 15 18 19 16 11 9 9 9 11 12 12 10 11 14 15 16 9 9 11 14 16
9 6 19 18 18 16 15 17 20 21 16 14 18 18 15 10 8 8 9 9 12 12 11 13 14 15 14 14 18 14 14 15
6 9 18 8 17 18 22 23 23 22 14 13 13 11 9 9 10 11 8 8 8 9 10 12 13 14 15 16 16 5 11 12
4 10 6 11 14 17 16 25 16 16 13 14 5 3 8 6 5 5 7 8 7 8 9 10 11 12 14 14 14 11 4 8
1 9 6 10 10 15 15 22 13 7 7 4 6 4 6 1 6 7 10 13 8 9 10 11 11 12 15 14 14 11 9 10
Wind_Direction
284 215 218 248 231 235 257 257 248 250 217 242 239 241 246 171 164 187 259 177 180 175 180 180 185 185 185 179 183 184 192 190
295 219 244 232 256 227 230 250 259 255 249 233 214 229 235 239 186 172 189 258 174 180 177 179 184 184 185 180 185 187 189 191
292 276 216 220 246 258 273 236 255 259 260 260 206 203 208 227 240 178 190 233 179 170 180 180 181 184 185 186 181 186 187 194
270 273 263 247 259 243 246 239 266 252 254 24 341 186 194 216 229 215 183 205 73 347 175 179 180 184 187 187 186 187 190 191
258 272 269 230 233 255 249 250 251 235 247 267 332 214 183 199 239 229 212 133 108 32 266 182 179 182 187 189 192 185 187 193
279 258 342 292 239 252 250 243 243 250 245 243 15 360 24 7 221 242 225 181 171 177 212 227 177 178 185 189 188 190 185 193
275 287 295 286 286 288 257 251 249 244 245 254 24 348 331 357 338 358 323 222 226 267 168 189 177 180 179 187 188 187 191 193
258 271 287 275 264 264 279 243 249 261 287 302 76 309 300 347 346 35 9 6 10 5 18 185 187 183 184 185 185 188 190 194
261 268 283 259 254 245 262 273 276 262 270 293 318 275 323 317 331 323 352 354 353 348 341 354 177 180 190 190 184 188 190 190
275 296 251 263 260 263 252 261 259 266 275 290 292 289 276 285 298 303 315 326 347 335 332 327 322 201 179 184 188 189 193 189
235 265 272 293 247 342 327 242 238 287 310 315 306 281 258 272 266 292 301 280 309 308 320 330 321 316 326 187 185 193 196 197
227 241 267 261 50 5 346 265 289 358 324 325 333 310 277 286 35 355 349 350 335 317 302 302 304 296 285 264 183 196 203 200
239 249 252 270 44 333 258 302 351 352 345 336 331 319 359 38 71 338 319 319 300 297 292 272 319 332 269 261 222 196 194 198
226 244 255 11 187 222 351 338 321 331 330 330 325 322 355 12 17 10 339 339 341 352 355 358 347 325 244 245 259 202 187 197
297 316 334 354 333 328 329 316 307 309 312 317 314 316 323 344 4 357 357 341 344 345 346 356 349 333 341 319 231 212 184 190
325 350 336 323 312 312 323 302 289 285 288 295 299 306 317 329 2 352 4 347 351 344 350 349 349 340 339 336 327 194 185 184
268 300 321 334 331 327 327 292 272 269 266 276 268 296 304 321 353 348 348 356 3 2 359 353 347 340 344 343 339 256 176 184
300 312 287 295 312 322 316 322 237 224 251 256 225 279 302 304 357 343 338 347 347 0 359 357 351 344 344 347 350 6 228 192
245 325 306 335 310 341 342 334 15 91 95 51 49 355 294 42 35 13 7 349 10 354 355 359 350 342 340 348 351 13 17 6